Flag for Botswana Weather past 2 weeks in Francistown, Botswana

Now
66 °F

Scattered clouds.


Feels Like: 66 °F
Forecast: 40 / 76 °F
Wind: 16 mph from East

Location: Francistown Airport

Current Time: Jul 30, 2014 at 2:14:59 PM

Latest Report: Jul 30, 2014 at 1:00 PM


Visibility: N/A

Pressure: 30.39 "Hg

Humidity: 52%

Dew point: 48 °F

Location of FrancistownLocation

Historic Weather in Francistown — Graph

°F

Francistown temperature yesterday

Maximum temperature yesterday: 63 °F (at 3:00 PM)
Minimum temperature yesterday: 57 °F (at 6:00 AM)
Average temperature yesterday: 60 °F

Past Weeks' High & Low Weather Summary

 TemperatureHumidityPressure
High84 °F (Jul 26, 2:00 PM)100% (Jul 21, 4:00 AM)30.48 "Hg (Jul 21, 4:00 AM)
Low30 °F (Jul 23, 7:00 AM)11% (Jul 26, 4:00 PM)30.04 "Hg (Jul 18, 3:00 PM)
Average58 °F50%30.26 "Hg
* Reported Jul 15 2:00 PM — Jul 30 1:00 PM, Francistown, Weather by CustomWeather, © 2014

Note: Actual official high and low records may vary slightly from our data, if they occured in-between our weather recording intervals... More about our weather records

Advertising

Francistown weather history for previous 24 hours

 ConditionsComfort  
Time TempWeatherWind HumidityBarometerVisibility
1:00 PM
Jul 30
66 °FScattered clouds.16 mph52%30.39 "HgN/A
12:00 PM64 °FScattered clouds.15 mph56%30.42 "HgN/A
11:00 AM63 °FScattered clouds.14 mph59%30.42 "HgN/A
10:00 AM57 °FPartly sunny.14 mph72%30.45 "HgN/A
9:00 AM55 °FOvercast.13 mph77%30.42 "HgN/A
8:00 AM55 °FOvercast.9 mph82%30.42 "HgN/A
7:00 AM55 °FPartly sunny.8 mph82%30.39 "HgN/A
6:00 AM55 °FPartly sunny.12 mph82%30.39 "HgN/A
5:00 AM55 °FPassing clouds.9 mph82%30.39 "HgN/A
4:00 AM55 °FPassing clouds.12 mph82%30.39 "HgN/A
3:00 AM54 °FPassing clouds.9 mph88%30.39 "HgN/A
2:00 AM55 °FLight rain. Passing clouds.13 mph82%30.42 "HgN/A
1:00 AM55 °FPassing clouds.13 mph82%30.42 "HgN/A
12:00 AM57 °FPassing clouds.14 mph77%30.42 "HgN/A
11:00 PM
Jul 29
57 °FPassing clouds.13 mph72%30.45 "HgN/A
10:00 PM59 °FPassing clouds.13 mph68%30.45 "HgN/A
9:00 PM61 °FPassing clouds.13 mph59%30.45 "HgN/A
8:00 PM61 °FPartly cloudy.12 mph59%30.42 "HgN/A
7:00 PM61 °FPartly cloudy.15 mph55%30.42 "HgN/A
6:00 PM61 °FPartly cloudy.15 mph55%30.42 "HgN/A
5:00 PM63 °FPartly cloudy.13 mph52%30.39 "HgN/A
4:00 PM63 °FPartly sunny.10 mph56%30.39 "HgN/A
3:00 PM63 °FPartly sunny.12 mph56%30.42 "HgN/A
2:00 PM61 °FPartly sunny.18 mph59%30.42 "HgN/A
Weather by CustomWeather, © 2014

See weather overviewHow to use our weather pages